When you browse on this site, cookies collect data to enhance your experience and personalize the content and advertising you see.
Visit our Privacy Policy to learn more. By continuing to use the site, you agree to this use of cookies and data.
  • In Slovakia
  • List of Countries
  • For 7 days
  • Water Temperature
  • Weather Map
  • Weather Widgets
  • user-avatar
    Login

    Hourly Weather Mendoza

    Today, 22 August, Thursday

    Time Temperature Precipitation Wind Pressure Humidity
    00:00 +12°C° 0 mm 2 mps 703 mmHg 53%
    01:00 +12°C° 0 mm 2 mps 703 mmHg 54%
    02:00 +11°C° 0 mm 1 mps 703 mmHg 56%
    03:00 +11°C° 0 mm 1 mps 703 mmHg 58%
    04:00 +10°C° 0 mm 1 mps 704 mmHg 60%
    05:00 +11°C° 0 mm 1 mps 704 mmHg 59%
    06:00 +11°C° 0 mm 1 mps 705 mmHg 57%
    07:00 +12°C° 0 mm 1 mps 705 mmHg 56%
    08:00 +13°C° 0 mm 1 mps 706 mmHg 52%
    09:00 +15°C° 0 mm 1 mps 706 mmHg 47%
    10:00 +16°C° 0 mm 2 mps 706 mmHg 42%
    11:00 +17°C° 0 mm 2 mps 706 mmHg 40%
    12:00 +18°C° 0 mm 2 mps 705 mmHg 37%
    13:00 +19°C° 0 mm 2 mps 704 mmHg 35%
    14:00 +19°C° 0 mm 3 mps 704 mmHg 34%
    15:00 +20°C° 0 mm 3 mps 704 mmHg 34%
    16:00 +20°C° 0 mm 4 mps 703 mmHg 33%
    17:00 +19°C° 0 mm 3 mps 703 mmHg 35%
    18:00 +18°C° 0 mm 3 mps 703 mmHg 38%
    19:00 +17°C° 0 mm 3 mps 703 mmHg 41%
    20:00 +16°C° 0 mm 2 mps 702 mmHg 43%
    21:00 +15°C° 0 mm 1 mps 702 mmHg 45%
    22:00 +14°C° 0 mm 1 mps 702 mmHg 48%
    23:00 +13°C° 0 mm 1 mps 701 mmHg 49%

    Tomorrow, 23 August, Friday

    Time Temperature Precipitation Wind Pressure Humidity
    00:00 +13°C° 0 mm 1 mps 701 mmHg 50%
    01:00 +12°C° 0 mm 1 mps 700 mmHg 51%
    02:00 +12°C° 0 mm 1 mps 700 mmHg 51%
    03:00 +12°C° 0 mm 1 mps 699 mmHg 51%
    04:00 +11°C° 0 mm 1 mps 699 mmHg 51%
    05:00 +12°C° 0 mm 1 mps 699 mmHg 50%
    06:00 +12°C° 0 mm 1 mps 699 mmHg 49%
    07:00 +13°C° 0 mm 1 mps 699 mmHg 47%
    08:00 +15°C° 0 mm 1 mps 700 mmHg 43%
    09:00 +17°C° 0 mm 2 mps 700 mmHg 38%
    10:00 +19°C° 0 mm 2 mps 700 mmHg 33%
    11:00 +20°C° 0 mm 2 mps 699 mmHg 31%
    12:00 +21°C° 0 mm 2 mps 699 mmHg 29%
    13:00 +23°C° 0 mm 2 mps 698 mmHg 27%
    14:00 +23°C° 0 mm 2 mps 698 mmHg 27%
    15:00 +23°C° 0 mm 1 mps 698 mmHg 27%
    16:00 +23°C° 0 mm 1 mps 697 mmHg 26%
    17:00 +21°C° 0 mm 1 mps 697 mmHg 30%
    18:00 +20°C° 0 mm 1 mps 697 mmHg 33%
    19:00 +18°C° 0 mm 1 mps 697 mmHg 36%
    20:00 +16°C° 0 mm 1 mps 697 mmHg 41%
    21:00 +16°C° 0 mm 1 mps 697 mmHg 45%
    22:00 +15°C° 0 mm 1 mps 697 mmHg 49%
    23:00 +14°C° 0 mm 1 mps 697 mmHg 49%

    Day after tomorrow, 24 August, Saturday

    Time Temperature Precipitation Wind Pressure Humidity
    00:00 +14°C° 0 mm 1 mps 697 mmHg 49%
    01:00 +13°C° 0 mm 1 mps 696 mmHg 49%
    02:00 +13°C° 0 mm 2 mps 696 mmHg 50%
    03:00 +13°C° 0 mm 2 mps 696 mmHg 50%
    04:00 +12°C° 0 mm 3 mps 696 mmHg 51%
    05:00 +13°C° 0 mm 2 mps 696 mmHg 50%
    06:00 +13°C° 0 mm 2 mps 697 mmHg 49%
    07:00 +14°C° 0 mm 2 mps 697 mmHg 48%
    08:00 +16°C° 0 mm 2 mps 697 mmHg 42%
    09:00 +18°C° 0 mm 2 mps 698 mmHg 36%
    10:00 +20°C° 0 mm 3 mps 698 mmHg 31%
    11:00 +21°C° 0 mm 3 mps 698 mmHg 28%
    12:00 +22°C° 0 mm 3 mps 697 mmHg 26%
    13:00 +25°C° 0 mm 3 mps 697 mmHg 24%
    14:00 +25°C° 0 mm 2 mps 697 mmHg 24%
    15:00 +25°C° 0 mm 2 mps 697 mmHg 24%
    16:00 +25°C° 0 mm 2 mps 696 mmHg 24%
    17:00 +23°C° 0 mm 2 mps 697 mmHg 28%
    18:00 +21°C° 0 mm 1 mps 697 mmHg 32%
    19:00 +19°C° 0 mm 1 mps 697 mmHg 36%
    20:00 +18°C° 0 mm 1 mps 697 mmHg 38%
    21:00 +18°C° 0 mm 1 mps 697 mmHg 40%
    22:00 +16°C° 0 mm 1 mps 697 mmHg 42%
    23:00 +15°C° 0 mm 1 mps 697 mmHg 44%

    25 August, Sunday

    Time Temperature Precipitation Wind Pressure Humidity
    00:00 +15°C° 0 mm 1 mps 697 mmHg 46%
    01:00 +14°C° 0 mm 1 mps 697 mmHg 48%
    02:00 +14°C° 0 mm 2 mps 697 mmHg 48%
    03:00 +14°C° 0 mm 2 mps 698 mmHg 48%
    04:00 +13°C° 0 mm 3 mps 698 mmHg 47%
    05:00 +13°C° 0 mm 3 mps 699 mmHg 48%
    06:00 +13°C° 0 mm 3 mps 699 mmHg 48%
    07:00 +14°C° 0 mm 4 mps 700 mmHg 48%
    08:00 +15°C° 0 mm 4 mps 701 mmHg 45%
    09:00 +16°C° 0 mm 5 mps 701 mmHg 42%
    10:00 +17°C° 0 mm 5 mps 702 mmHg 39%
    11:00 +19°C° 0 mm 4 mps 701 mmHg 37%
    12:00 +20°C° 0 mm 4 mps 701 mmHg 36%
    13:00 +21°C° 0 mm 3 mps 701 mmHg 34%
    14:00 +21°C° 0 mm 3 mps 701 mmHg 33%
    15:00 +21°C° 0 mm 3 mps 701 mmHg 33%
    16:00 +21°C° 0 mm 3 mps 701 mmHg 33%
    17:00 +19°C° 0 mm 2 mps 701 mmHg 37%
    18:00 +18°C° 0 mm 2 mps 702 mmHg 42%
    19:00 +16°C° 0 mm 2 mps 702 mmHg 46%
    20:00 +16°C° 0 mm 1 mps 702 mmHg 49%
    21:00 +15°C° 0 mm 1 mps 702 mmHg 51%
    22:00 +14°C° 0 mm 1 mps 702 mmHg 53%
    23:00 +14°C° 0 mm 1 mps 702 mmHg 54%

    26 August, Monday

    Time Temperature Precipitation Wind Pressure Humidity
    00:00 +14°C° 0 mm 1 mps 702 mmHg 55%
    01:00 +13°C° 0 mm 1 mps 702 mmHg 56%
    02:00 +13°C° 0 mm 1 mps 701 mmHg 55%
    03:00 +13°C° 0 mm 1 mps 701 mmHg 54%
    04:00 +13°C° 0 mm 1 mps 701 mmHg 54%
    05:00 +13°C° 0 mm 1 mps 701 mmHg 52%
    06:00 +14°C° 0 mm 1 mps 702 mmHg 51%
    07:00 +15°C° 0 mm 1 mps 702 mmHg 49%
    08:00 +17°C° 0 mm 2 mps 702 mmHg 44%
    09:00 +19°C° 0 mm 2 mps 702 mmHg 38%
    10:00 +21°C° 0 mm 3 mps 703 mmHg 32%
    11:00 +22°C° 0 mm 3 mps 702 mmHg 30%
    12:00 +23°C° 0 mm 4 mps 702 mmHg 28%
    13:00 +25°C° 0 mm 4 mps 701 mmHg 26%
    14:00 +25°C° 0 mm 4 mps 701 mmHg 26%
    15:00 +26°C° 0 mm 4 mps 701 mmHg 26%
    16:00 +26°C° 0 mm 3 mps 701 mmHg 26%
    17:00 +24°C° 0 mm 3 mps 701 mmHg 30%
    18:00 +21°C° 0 mm 2 mps 701 mmHg 33%
    19:00 +21°C° 0 mm 1 mps 701 mmHg 37%
    20:00 +20°C° 0 mm 1 mps 701 mmHg 40%
    21:00 +20°C° 0 mm 1 mps 701 mmHg 43%
    22:00 +19°C° 0 mm 1 mps 701 mmHg 46%
    23:00 +18°C° 0 mm 1 mps 701 mmHg 52%

    27 August, Tuesday

    Time Temperature Precipitation Wind Pressure Humidity
    00:00 +16°C° 0 mm 1 mps 701 mmHg 58%
    01:00 +15°C° 0 mm 1 mps 701 mmHg 64%
    02:00 +15°C° 0 mm 1 mps 700 mmHg 64%
    03:00 +15°C° 0 mm 1 mps 700 mmHg 64%
    04:00 +15°C° 0 mm 1 mps 700 mmHg 64%
    05:00 +15°C° 0 mm 1 mps 700 mmHg 65%
    06:00 +16°C° 0 mm 1 mps 701 mmHg 65%
    07:00 +16°C° 0 mm 1 mps 701 mmHg 65%
    08:00 +18°C° 0 mm 2 mps 701 mmHg 59%
    09:00 +20°C° 0 mm 2 mps 701 mmHg 53%
    10:00 +23°C° 0 mm 2 mps 701 mmHg 46%
    11:00 +25°C° 0 mm 3 mps 701 mmHg 41%
    12:00 +26°C° 0 mm 4 mps 700 mmHg 36%
    13:00 +28°C° 0 mm 4 mps 700 mmHg 31%
    14:00 +28°C° 0 mm 4 mps 700 mmHg 31%
    15:00 +28°C° 0 mm 4 mps 699 mmHg 30%
    16:00 +28°C° 0 mm 4 mps 699 mmHg 30%
    17:00 +26°C° 0 mm 4 mps 699 mmHg 36%
    18:00 +24°C° 0 mm 3 mps 699 mmHg 42%
    19:00 +21°C° 0 mm 3 mps 699 mmHg 48%
    20:00 +20°C° 0 mm 2 mps 699 mmHg 53%
    21:00 +20°C° 0 mm 1 mps 698 mmHg 59%
    22:00 +19°C° 0 mm 1 mps 698 mmHg 64%
    23:00 +18°C° 0 mm 1 mps 698 mmHg 66%
    Show more